Location: Catstown
(52.4386°N, 7.2633°W)
Time: 13:17:15
(UTC+00:00)

Resurs 1-3 - Pass Details

Date: 18 September 2020
Orbit: 630 x 632 km, 97.9° (Epoch: 22 October)

Event Time Altitude Azimuth Distance (km) Brightness Sun altitude
Exits shadow 20:01:15 18° 135° (SE) 1,532 5.0 -13.5°
Maximum altitude 20:04:11 47° 68° (ENE) 847 3.9 -13.9°
Drops below altitude 10° 20:08:25 10° 355° (N) 2,027 6.6 -14.5°
Sets 20:10:40 0° 350° (N) 2,940 7.5 -14.8°
